Langdon, ND

6:34 PM CST on November 22, 2017 (GMT -0600)
Langdon

Weather History for KD55 - January, 2013

Change the Weather History Date:

Monday, January 14, 2013

  Actual Average (KDVL) Record (KDVL)
Temperature  
Mean Temperature -9 °F -  
Max Temperature 0 °F 19 °F 39 °F (1987)
Min Temperature -18 °F 0 °F -30 °F (1972)
Degree Days  
Heating Degree Days 74    
Moisture  
Dew Point -11 °F    
Average Humidity 81    
Maximum Humidity 92    
Minimum Humidity 76    
Precipitation  
Precipitation 0.00 in - - ()
Sea Level Pressure  
Sea Level Pressure 30.11 in    
Wind  
Wind Speed 10 mph (SW)    
Max Wind Speed 15 mph    
Max Gust Speed -    
Visibility 10 miles    
Events      
Averages and records for this station are not official NWS values.
T = Trace of Precipitation, MM = Missing Value Source: NWS Daily Summary

Daily Weather History Graph

Daily Weather History Graph

Search for Another Location

Airport or City:

Trip Planner

Search our weather history database for the weather conditions in past years. The results will help you decide how hot, cold, wet, or windy it might be!

Date:

Astronomy

Jan. 14, 2013 Rise Set
Actual Time 8:21 AM CST 5:04 PM CST
Civil Twilight 7:45 AM CST 5:40 PM CST
Nautical Twilight 7:06 AM CST 6:19 PM CST
Astronomical Twilight 6:28 AM CST 6:57 PM CST
Moon 9:35 AM CST (1/14) 9:14 PM CST (1/14)
Length of Visible Light 9h 54m
Length of Day
8h 42m
Waxing Crescent, 11% of the Moon is Illuminated
Jan 14
Waxing Crescent
Jan 18
First Quarter
Jan 26
Full
Feb 3
Last Quarter
Feb 10
New

Hourly Weather History & Observations

Time (CST) Temp. Windchill Dew Point Humidity Pressure Visibility Wind Dir Wind Speed Gust Speed Precip Events Conditions
12:15 AM -9.4 °F -27.9 °F -13.0 °F 84% 30.12 in 10.0 mi WSW 10.4 mph - N/A   Overcast
12:35 AM -9.4 °F -27.9 °F -13.0 °F 84% 30.11 in 10.0 mi West 10.4 mph - N/A   Overcast
12:55 AM -7.6 °F -23.4 °F -11.2 °F 84% 30.12 in 10.0 mi WSW 8.1 mph - N/A   Overcast
1:15 AM -5.8 °F -22.4 °F -9.4 °F 84% 30.12 in 10.0 mi West 9.2 mph - N/A   Overcast
1:35 AM -4.0 °F -20.2 °F -9.4 °F 78% 30.12 in 10.0 mi West 9.2 mph - N/A   Overcast
1:55 AM -4.0 °F -17.8 °F -9.4 °F 78% 30.12 in 10.0 mi WSW 6.9 mph - N/A   Overcast
2:15 AM -4.0 °F -16.3 °F -9.4 °F 78% 30.12 in 10.0 mi WSW 5.8 mph - N/A   Overcast
2:35 AM -4.0 °F -17.8 °F -7.6 °F 85% 30.13 in 10.0 mi WSW 6.9 mph - N/A   Mostly Cloudy
2:55 AM -2.2 °F -15.6 °F -7.6 °F 78% 30.13 in 10.0 mi SW 6.9 mph - N/A   Overcast
3:15 AM -2.2 °F -18.0 °F -7.6 °F 78% 30.13 in 10.0 mi SW 9.2 mph - N/A   Overcast
3:35 AM -2.2 °F -18.0 °F -7.6 °F 78% 30.13 in 10.0 mi SW 9.2 mph - N/A   Overcast
3:55 AM -4.0 °F -21.2 °F -9.4 °F 78% 30.12 in 10.0 mi SW 10.4 mph - N/A   Mostly Cloudy
4:15 AM -7.6 °F -26.6 °F -11.2 °F 84% 30.12 in 10.0 mi WSW 11.5 mph - N/A   Partly Cloudy
4:35 AM -7.6 °F -25.7 °F -13.0 °F 77% 30.12 in 10.0 mi SW 10.4 mph - N/A   Clear
4:55 AM -9.4 °F -27.9 °F -13.0 °F 84% 30.12 in 10.0 mi WSW 10.4 mph - N/A   Partly Cloudy
5:15 AM -11.2 °F -30.1 °F -16.6 °F 77% 30.12 in 10.0 mi WSW 10.4 mph - N/A   Partly Cloudy
5:35 AM -11.2 °F -31.1 °F -16.6 °F 77% 30.11 in 10.0 mi WSW 11.5 mph - N/A   Clear
5:55 AM -11.2 °F -31.1 °F -16.6 °F 77% 30.12 in 10.0 mi West 11.5 mph - N/A   Clear
6:15 AM -13.0 °F -32.4 °F -18.4 °F 77% 30.12 in 10.0 mi West 10.4 mph - N/A   Partly Cloudy
6:35 AM -13.0 °F -33.4 °F -18.4 °F 77% 30.12 in 10.0 mi West 11.5 mph - N/A   Mostly Cloudy
6:55 AM -13.0 °F -31.3 °F -18.4 °F 77% 30.13 in 10.0 mi West 9.2 mph - N/A   Mostly Cloudy
7:15 AM -11.2 °F -29.0 °F -16.6 °F 77% 30.13 in 10.0 mi West 9.2 mph - N/A   Overcast
7:35 AM -13.0 °F -28.6 °F -18.4 °F 77% 30.13 in 10.0 mi West 6.9 mph - N/A   Overcast
7:55 AM -16.6 °F -36.8 °F -20.2 °F 84% 30.14 in 10.0 mi WSW 10.4 mph - N/A   Mostly Cloudy
8:15 AM -16.6 °F -35.7 °F -22.0 °F 76% 30.14 in 10.0 mi SW 9.2 mph - N/A   Partly Cloudy
8:35 AM -18.4 °F -35.1 °F -22.0 °F 84% 30.15 in 10.0 mi SW 6.9 mph - N/A   Clear
8:55 AM -16.6 °F -36.8 °F -22.0 °F 76% 30.15 in 10.0 mi SW 10.4 mph - N/A   Scattered Clouds
9:15 AM -16.6 °F -36.8 °F -20.2 °F 84% 30.16 in 10.0 mi WSW 10.4 mph - N/A   Overcast
9:35 AM -13.0 °F -31.3 °F -18.4 °F 77% 30.16 in 7.0 mi WSW 9.2 mph - N/A   Overcast
9:55 AM -13.0 °F -32.4 °F -18.4 °F 77% 30.16 in 4.0 mi WSW 10.4 mph - N/A   Haze
10:15 AM -13.0 °F -31.3 °F -18.4 °F 77% 30.16 in 5.0 mi WSW 9.2 mph - N/A   Haze
10:35 AM -11.2 °F -29.0 °F -16.6 °F 77% 30.16 in 7.0 mi WSW 9.2 mph - N/A   Overcast
10:55 AM -9.4 °F -25.6 °F -14.8 °F 77% 30.16 in 9.0 mi WSW 8.1 mph - N/A   Overcast
11:15 AM -9.4 °F -24.3 °F -14.8 °F 77% 30.16 in 10.0 mi SW 6.9 mph - N/A   Mostly Cloudy
11:35 AM -9.4 °F -26.8 °F -13.0 °F 84% 30.15 in 10.0 mi SW 9.2 mph - N/A   Mostly Cloudy
11:55 AM -7.6 °F -23.4 °F -13.0 °F 77% 30.15 in 10.0 mi SW 8.1 mph - N/A   Partly Cloudy
12:15 PM -7.6 °F -24.6 °F -11.2 °F 84% 30.14 in 10.0 mi SW 9.2 mph - N/A   Unknown
12:35 PM -5.8 °F -24.4 °F -11.2 °F 77% 30.13 in 9.0 mi SSW 11.5 mph - N/A   Scattered Clouds
12:55 PM -4.0 °F -23.0 °F -9.4 °F 78% 30.12 in 10.0 mi SW 12.7 mph - N/A   Scattered Clouds
1:15 PM -4.0 °F -23.7 °F -9.4 °F 78% 30.12 in 10.0 mi SW 13.8 mph - N/A   Scattered Clouds
1:35 PM -4.0 °F -23.0 °F -9.4 °F 78% 30.11 in 10.0 mi SW 12.7 mph - N/A   Clear
2:15 PM -4.0 °F -22.1 °F -7.6 °F 85% 30.11 in 10.0 mi SW 11.5 mph - N/A   Mostly Cloudy
2:35 PM -2.2 °F -18.9 °F -7.6 °F 78% 30.11 in 10.0 mi WSW 10.4 mph - N/A   Mostly Cloudy
2:55 PM -2.2 °F -19.9 °F -7.6 °F 78% 30.11 in 10.0 mi SW 11.5 mph - N/A   Mostly Cloudy
3:15 PM -2.2 °F -15.6 °F -7.6 °F 78% 30.11 in 10.0 mi West 6.9 mph - N/A   Mostly Cloudy
3:35 PM -2.2 °F -18.0 °F -7.6 °F 78% 30.11 in 10.0 mi West 9.2 mph - N/A   Mostly Cloudy
3:55 PM -2.2 °F -19.9 °F -7.6 °F 78% 30.11 in 10.0 mi WSW 11.5 mph - N/A   Partly Cloudy
4:15 PM -4.0 °F -22.1 °F -7.6 °F 85% 30.10 in 10.0 mi WSW 11.5 mph - N/A   Mostly Cloudy
4:35 PM -2.2 °F -18.9 °F -5.8 °F 85% 30.11 in 10.0 mi WSW 10.4 mph - N/A   Overcast
4:55 PM -2.2 °F -18.9 °F -7.6 °F 78% 30.09 in 10.0 mi SW 10.4 mph - N/A   Overcast
5:15 PM -4.0 °F -20.2 °F -9.4 °F 78% 30.09 in 10.0 mi WSW 9.2 mph - N/A   Mostly Cloudy
5:35 PM -4.0 °F -21.2 °F -9.4 °F 78% 30.09 in 10.0 mi SW 10.4 mph - N/A   Scattered Clouds
5:55 PM -4.0 °F -22.1 °F -9.4 °F 78% 30.09 in 10.0 mi SW 11.5 mph - N/A   Mostly Cloudy
6:15 PM -4.0 °F -22.1 °F -9.4 °F 78% 30.09 in 10.0 mi SW 11.5 mph - N/A   Overcast
6:35 PM -4.0 °F -24.5 °F -7.6 °F 85% 30.08 in 10.0 mi SW 15.0 mph - N/A   Overcast
6:55 PM -2.2 °F -21.5 °F -5.8 °F 85% 30.08 in 10.0 mi SW 13.8 mph - N/A   Overcast
7:15 PM -2.2 °F -20.7 °F -7.6 °F 78% 30.08 in 10.0 mi SW 12.7 mph - N/A   Overcast
7:35 PM -2.2 °F -19.9 °F -5.8 °F 85% 30.07 in 10.0 mi SW 11.5 mph - N/A   Overcast
7:55 PM -2.2 °F -18.9 °F -5.8 °F 85% 30.07 in 10.0 mi SW 10.4 mph - N/A   Overcast
8:15 PM -2.2 °F -19.9 °F -5.8 °F 85% 30.07 in 10.0 mi SW 11.5 mph - N/A   Overcast
8:35 PM -2.2 °F -20.7 °F -5.8 °F 85% 30.06 in 10.0 mi SW 12.7 mph - N/A   Overcast
8:55 PM -2.2 °F -18.9 °F -5.8 °F 85% 30.07 in 10.0 mi SW 10.4 mph - N/A   Overcast
9:15 PM -2.2 °F -18.0 °F -5.8 °F 85% 30.06 in 10.0 mi SW 9.2 mph - N/A   Overcast
9:35 PM -2.2 °F -15.6 °F -5.8 °F 85% 30.05 in 10.0 mi SW 6.9 mph - N/A   Overcast
9:55 PM -2.2 °F -15.6 °F -5.8 °F 85% 30.04 in 10.0 mi SSW 6.9 mph - N/A   Overcast
10:15 PM -2.2 °F -16.8 °F -4.0 °F 92% 30.04 in 10.0 mi SSW 8.1 mph - N/A   Overcast
10:35 PM -0.4 °F -15.7 °F -4.0 °F 85% 30.03 in 10.0 mi SSW 9.2 mph - N/A   Overcast
10:55 PM -0.4 °F -18.4 °F -4.0 °F 85% 30.02 in 10.0 mi SSW 12.7 mph - N/A   Overcast
11:15 PM -0.4 °F -13.4 °F -4.0 °F 85% 30.03 in 10.0 mi SW 6.9 mph - N/A   Overcast
11:35 PM -0.4 °F -14.7 °F -4.0 °F 85% 30.03 in 10.0 mi SSW 8.1 mph - N/A   Overcast
11:55 PM -0.4 °F -15.7 °F -4.0 °F 85% 30.02 in 10.0 mi SSW 9.2 mph - N/A   Overcast